SCP
0 0 0 0 0 0 0 0 0 0 0 0 0 0 0 0 0 0 0 0 1 1 1 0 0 0 0 0 0 0 0 0 0 0 0 0 0 0 0 0 0 0 0
0 0 0 0 0 0 0 0 0 0 0 0 0 0 0 0 0 0 0 0 1 0 0 0 0 0 0 0 0 0 0 0 0 0 0 0 0 0 0 0 0 0 0
0 0 0 0 0 0 0 0 0 0 0 0 0 0 0 1 0 0 0 0 0 0 1 1 1 0 0 0 1 1 1 1 0 0 0 0 1 1 1 1 1 1 1
0 0 0 0 0 0 0 0 0 0 0 0 0 0 0 1 1 0 0 0 0 0 0 0 0 0 0 1 1 1 1 1 1 0 0 1 1 1 1 1 1 1 1
0 0 0 0 0 0 0 0 0 0 0 0 0 0 1 1 0 0 0 0 0 0 0 0 0 0 0 0 0 0 1 1 1 1 1 1 1 1 1 1 1 1 1
0 0 0 0 0 0 0 0 0 0 0 0 0 0 1 1 0 0 0 0 0 0 0 0 0 0 0 0 0 0 0 0 0 0 0 1 1 1 1 1 1 1 1
0 0 0 0 0 0 0 0 0 0 0 0 1 1 0 0 0 0 0 0 0 0 0 0 0 0 0 0 0 0 0 0 0 0 1 0 1 1 1 1 1 1 1
0 0 0 0 0 0 0 0 0 0 0 0 0 0 0 0 0 0 0 0 0 0 0 0 0 0 0 0 0 0 0 0 0 0 0 1 1 1 1 1 1 1 1
0 0 0 0 0 0 0 0 0 0 0 0 0 0 0 0 0 0 0 0 0 0 0 0 0 0 0 0 0 0 0 0 0 0 0 0 0 1 1 1 1 1 1
0 0 0 0 0 0 0 0 0 0 0 0 0 0 0 0 0 0 0 0 0 0 -0 -0 0 -0 -0 -0 0 0 -0 0 0 0 0 0 0 0 1 1 1 1 1
0 0 0 0 0 0 0 0 0 0 0 0 0 0 0 0 0 0 0 0 0 0 -0 -0 -0 -0 -0 0 0 0 -0 -0 -0 0 0 0 0 0 0 0 1 1 1
0 0 0 0 0 0 0 0 0 0 0 0 0 0 0 0 0 0 0 0 0 0 0 -0 -0 -0 -0 0 0 0 -0 -0 0 0 0 0 0 0 0 0 1 1 1
0 -0 0 0 0 0 0 0 0 0 0 0 0 0 0 0 0 0 0 0 0 0 -0 0 0 -0 -0 0 0 -0 0 0 0 0 0 0 0 0 0 0 0 1 0
-0 -0 -0 0 0 0 0 0 0 0 0 0 0 0 0 0 0 0 0 0 -0 -0 -0 -0 -0 0 0 0 0 -0 0 0 0 0 0 0 0 0 0 0 0 0 0
0 -0 -0 0 0 0 0 0 0 0 0 0 0 0 0 0 0 0 0 0 0 -0 -0 -0 -0 0 0 -0 -0 -0 -0 0 0 0 0 0 0 0 0 0 0 0 0
0 0 0 0 -0 -0 -0 0 0 0 0 0 0 0 0 0 0 0 0 -0 -0 -0 -0 -0 -0 -0 -0 0 -0 -0 -0 -0 0 0 0 0 0 0 -0 0 0 0 0
0 0 0 0 -0 0 0 0 0 0 0 0 0 0 0 0 0 -0 0 -0 -0 -0 -0 -0 -0 -0 -0 -0 -0 0 0 0 0 0 0 0 0 0 -0 0 0 0 0
0 0 0 0 0 0 0 0 0 0 0 0 0 0 0 0 0 0 0 -0 -0 0 -0 -0 -0 -0 -0 -0 0 0 0 0 0 0 0 0 0 -0 -0 0 0 0 0
0 0 0 0 0 0 0 0 0 0 0 0 0 0 0 0 0 0 0 0 0 0 0 0 -0 -0 -0 0 0 0 0 0 0 0 0 0 0 -0 -0 0 0 0 0
1 0 0 0 0 0 0 0 0 0 0 0 0 0 0 0 -0 0 0 0 0 0 0 0 0 -0 -0 0 0 0 0 0 0 0 0 -0 -0 0 0 0 0 0 0
0 1 1 1 0 0 0 0 0 0 0 0 0 0 0 0 0 0 0 0 0 0 0 0 -0 0 0 0 0 0 0 0 -0 0 -0 -0 -0 -0 -0 0 0 0 0
0 0 1 1 1 1 0 0 0 0 0 0 0 0 0 0 0 0 0 0 0 0 0 0 0 -0 -0 -0 0 0 -0 -0 -0 0 -0 -0 -0 -0 0 0 0 0 0
0 0 0 0 0 0 0 0 0 0 1 1 0 0 0 0 0 0 0 0 -0 -0 0 0 0 0 0 0 -0 -0 -0 -0 -0 0 -0 0 0 0 0 0 0 0 0
0 0 0 0 0 0 0 0 0 1 1 1 0 0 0 0 0 0 0 0 0 0 0 0 0 0 0 1 0 0 0 0 0 0 1 0 0 0 0 0 0 0 0
0 0 0 0 0 0 0 0 0 0 0 0 0 0 0 0 0 0 0 0 0 0 0 0 0 0 0 0 0 0 0 0 0 0 1 1 0 0 0 0 0 0 0
0 0 0 0 0 0 0 0 0 0 0 0 0 0 0 0 0 0 0 0 0 0 0 0 0 0 0 0 0 0 1 1 1 0 1 1 0 0 0 0 1 1 0
Wind_Speed_500mb
22 27 25 21 19 16 11 13 16 18 20 21 20 23 23 25 26 25 23 18 17 18 19 20 22 26 27 28 28 30 31 31 31 30 29 30 29 28 27 26 25 24 24
23 21 19 10 17 12 13 12 16 21 20 18 14 16 18 20 23 24 23 22 21 22 22 25 28 30 29 30 30 31 30 30 32 33 34 34 33 33 32 30 30 29 28
17 15 8 13 17 16 13 11 13 14 19 23 23 20 18 17 18 19 19 22 23 24 25 27 29 28 30 29 28 29 30 32 33 34 34 35 36 36 35 34 32 31 31
17 16 17 20 15 12 11 11 12 12 15 17 18 20 16 15 15 17 17 19 20 21 24 25 25 25 26 25 26 27 29 31 31 31 31 32 34 36 40 39 35 32 32
18 20 19 16 13 14 10 9 9 10 13 16 17 17 15 14 15 16 14 14 16 20 21 20 20 22 23 24 25 27 29 31 32 32 30 30 32 36 38 40 39 35 34
12 14 15 12 12 15 13 13 11 8 11 14 15 13 12 10 13 13 14 16 16 17 17 15 15 17 19 19 21 25 27 31 33 33 32 31 31 33 35 38 40 42 37
11 12 14 10 13 15 14 12 10 8 9 13 15 10 10 8 5 6 10 11 11 14 15 12 11 14 13 14 17 22 28 33 35 35 35 31 30 33 36 37 37 41 43
12 13 13 14 14 15 13 9 7 9 10 14 14 12 8 8 7 1 3 5 8 14 15 13 11 11 11 12 15 20 27 32 38 41 41 30 29 33 37 38 38 38 38
15 16 17 16 15 13 13 10 7 8 12 14 15 12 6 7 6 3 1 0 7 10 9 8 5 7 9 11 16 21 24 34 43 40 40 32 32 33 39 40 38 38 38
13 17 19 17 16 13 13 8 4 7 11 13 11 16 16 15 4 3 7 4 4 3 2 4 8 9 12 16 16 21 28 40 45 42 41 39 34 35 39 40 39 38 40
13 16 15 17 17 12 10 9 8 4 7 13 13 13 16 20 17 13 6 9 8 7 8 10 11 14 17 19 21 26 35 41 46 40 38 36 33 36 40 42 37 38 40
13 18 16 18 18 17 11 13 12 7 4 5 11 13 14 14 16 15 11 11 9 11 12 14 13 15 19 18 22 30 38 42 40 32 32 33 36 42 47 47 39 40 41
11 14 14 16 21 18 14 17 16 12 9 6 3 3 6 9 12 13 14 11 7 10 6 11 13 14 16 22 29 37 43 40 32 29 31 36 42 47 54 49 40 40 38
11 14 12 14 16 15 16 21 19 17 12 13 13 7 4 3 5 7 8 8 8 6 8 6 12 19 24 29 35 38 37 33 29 30 34 40 46 53 52 46 41 34 32
16 15 16 15 14 14 14 17 18 18 18 17 18 16 13 11 11 10 10 12 9 12 14 13 17 24 31 34 37 40 39 37 36 36 40 46 50 49 46 42 38 35 36
19 17 16 15 13 12 13 16 17 16 17 22 21 22 21 20 18 19 20 20 20 18 20 22 25 38 38 41 40 49 42 37 33 36 44 47 44 41 44 42 37 36 40
19 15 17 18 20 23 15 12 17 17 19 18 20 22 23 24 25 25 25 26 26 24 25 29 37 40 43 40 38 31 29 30 31 36 41 41 37 38 46 47 44 34 38
19 15 18 16 18 23 20 13 12 15 16 15 15 17 14 18 21 24 26 27 29 29 28 32 35 34 37 33 32 29 28 29 35 33 35 34 34 36 43 49 52 32 29
24 22 18 20 16 17 15 12 13 14 16 16 15 17 17 18 19 17 18 21 23 26 28 31 32 34 39 34 34 36 36 37 32 36 37 38 38 36 40 47 49 29 21
25 26 24 21 21 19 15 16 15 17 19 22 21 21 21 21 22 23 25 23 23 25 28 31 30 32 31 34 37 35 36 32 42 41 41 43 41 39 41 36 36 33 21
26 25 26 26 24 26 24 20 22 22 22 22 24 24 24 25 26 24 25 25 28 31 31 30 33 34 32 31 31 32 37 40 41 42 50 50 44 44 36 30 23 27 26
15 19 25 26 28 30 29 27 26 24 22 21 21 21 24 25 26 26 27 29 31 34 37 36 35 35 39 36 35 35 40 43 48 39 58 59 42 37 29 25 27 26 25
14 9 8 15 21 26 29 27 26 27 27 26 26 28 27 28 32 34 36 38 40 40 42 44 48 48 48 43 46 55 45 52 52 59 57 52 43 36 29 28 33 27 27
9 15 7 8 14 16 21 21 21 24 27 29 31 33 34 38 39 41 43 44 45 47 49 50 54 55 55 57 58 56 60 62 56 45 41 44 37 41 38 45 41 33 26
6 16 15 14 11 13 14 11 11 17 23 26 27 27 29 34 41 45 46 47 47 46 49 52 53 55 56 55 53 57 54 44 48 44 40 45 37 43 43 44 39 38 44
9 9 9 18 18 17 14 13 16 11 14 16 18 22 26 33 37 42 43 44 45 46 51 51 49 48 50 51 49 51 52 52 48 47 30 34 40 41 46 33 31 40 45
Wind_Direction_500mb
118 123 121 113 132 129 97 88 64 60 89 89 84 73 67 66 60 55 56 61 64 66 66 69 68 68 67 66 63 57 49 40 32 23 15 8 1 353 343 334 325 317 312
124 135 141 123 144 137 112 92 86 83 83 84 85 74 57 58 54 51 54 62 71 77 80 81 80 77 75 68 59 51 42 34 27 20 14 8 2 355 346 338 330 321 312
135 151 165 149 145 139 123 112 92 92 87 80 82 77 70 65 54 55 68 72 72 77 82 83 83 82 74 65 55 47 39 32 27 22 18 14 11 5 358 348 337 324 315
128 142 139 138 145 135 119 121 86 97 73 66 66 51 53 64 76 82 82 83 79 80 80 86 87 81 74 64 52 42 33 25 18 13 11 8 7 6 4 360 350 338 329
117 126 135 137 129 127 129 111 77 74 61 46 28 49 49 75 95 97 93 90 88 86 86 87 87 81 72 62 53 45 36 25 15 7 358 359 0 5 2 3 2 354 349
119 132 140 142 146 137 127 126 113 73 50 28 38 46 70 90 115 114 107 103 96 90 92 95 89 80 75 62 48 40 31 22 12 3 355 352 353 357 360 1 8 8 2
138 134 144 145 148 157 145 129 108 85 61 38 44 45 75 88 86 125 128 128 113 99 95 96 92 81 73 53 36 28 21 15 11 3 354 344 350 355 356 354 1 5 6
172 167 165 151 155 162 162 156 106 87 68 49 50 66 64 60 31 46 143 138 121 114 103 100 98 82 66 44 24 16 16 8 3 358 354 351 354 355 355 352 354 356 358
169 164 171 164 155 155 165 154 122 87 74 56 58 72 72 52 50 1 347 78 142 127 117 103 76 32 7 10 7 7 7 1 359 354 355 353 348 350 350 348 347 352 350
191 182 185 187 176 178 182 174 142 96 81 71 76 74 74 57 48 25 16 33 161 152 38 7 17 12 3 359 349 348 355 353 350 350 354 354 349 348 345 345 343 348 345
189 183 194 192 187 193 193 193 188 134 94 81 84 96 77 63 65 60 43 39 69 37 12 22 20 10 356 350 344 342 347 345 347 350 354 358 358 355 353 347 342 347 346
217 204 193 189 199 207 215 203 198 196 164 118 103 87 83 74 65 57 53 55 47 16 358 352 350 346 346 349 343 340 339 342 346 349 350 347 343 341 343 342 335 338 345
212 208 208 200 208 209 223 211 206 210 213 213 196 110 68 65 64 55 48 39 35 20 25 20 20 18 358 344 341 341 345 347 342 343 339 340 338 336 338 339 334 336 343
206 212 204 197 190 210 224 216 216 216 230 234 234 253 278 333 14 30 13 17 355 349 337 339 347 344 340 339 339 341 347 348 346 342 339 339 337 336 340 345 346 344 348
209 208 203 199 208 218 220 217 226 229 238 245 242 243 260 276 288 301 312 320 324 313 308 307 321 323 326 328 328 330 328 326 325 332 334 335 336 338 346 352 1 359 352
210 199 192 201 207 214 225 229 238 244 253 243 246 249 250 261 274 282 281 284 289 293 296 299 309 313 316 318 320 320 318 315 311 315 322 331 336 339 342 342 343 346 348
214 233 232 228 230 227 227 238 238 249 246 249 253 249 252 259 267 274 276 276 279 286 291 298 308 313 315 321 325 328 331 330 325 324 323 332 336 336 339 341 335 333 341
229 232 232 238 244 220 223 232 238 241 250 246 253 250 262 270 270 275 268 271 276 284 291 302 308 318 322 327 329 336 337 333 327 332 329 333 334 334 339 336 340 332 335
237 234 245 244 259 231 226 230 236 248 253 248 243 249 262 268 275 274 273 279 276 277 292 299 304 312 320 327 329 332 329 328 333 327 330 330 331 332 333 329 338 340 332
243 239 235 240 239 239 248 258 260 261 258 256 258 260 263 261 262 265 269 270 273 277 285 292 293 301 306 315 323 328 325 327 323 322 324 326 329 333 333 331 335 344 331
244 249 245 241 244 250 253 261 263 266 256 259 264 270 269 272 273 272 276 278 278 277 283 283 291 296 303 308 314 314 317 318 324 322 326 329 328 334 335 336 332 340 337
236 244 245 243 244 248 256 263 264 267 271 272 271 272 278 277 278 268 272 280 280 282 286 288 288 290 300 308 310 311 313 314 316 317 322 324 329 330 333 336 327 319 326
225 215 235 243 245 248 250 253 257 265 269 273 278 280 278 276 274 270 271 276 278 279 282 286 287 290 293 299 303 307 305 304 306 310 312 312 321 321 325 321 330 322 309
247 246 219 227 249 262 254 254 258 264 264 268 272 273 273 271 274 275 275 278 279 280 280 281 282 285 289 294 297 299 300 302 304 307 305 304 312 310 311 316 317 318 316
223 217 198 224 236 248 253 267 270 269 265 266 272 277 277 275 277 277 278 280 280 278 276 275 275 280 284 286 288 291 296 295 297 298 295 293 303 305 308 306 312 315 319
173 212 253 221 228 241 260 275 291 291 288 293 294 297 302 302 299 297 300 300 295 292 288 284 283 285 286 288 287 287 290 289 290 296 300 288 300 302 304 298 295 303 305
Wind_Speed_850mb
22 27 25 21 19 16 11 13 16 18 20 21 20 23 23 25 26 25 23 18 17 18 19 20 22 26 27 28 28 30 31 31 31 30 29 30 29 28 27 26 25 24 24
23 21 19 10 17 12 13 12 16 21 20 18 14 16 18 20 23 24 23 22 21 22 22 25 28 30 29 30 30 31 30 30 32 33 34 34 33 33 32 30 30 29 28
17 15 8 13 17 16 13 11 13 14 19 23 23 20 18 17 18 19 19 22 23 24 25 27 29 28 30 29 28 29 30 32 33 34 34 35 36 36 35 34 32 31 31
17 16 17 20 15 12 11 11 12 12 15 17 18 20 16 15 15 17 17 19 20 21 24 25 25 25 26 25 26 27 29 31 31 31 31 32 34 36 40 39 35 32 32
18 20 19 16 13 14 10 9 9 10 13 16 17 17 15 14 15 16 14 14 16 20 21 20 20 22 23 24 25 27 29 31 32 32 30 30 32 36 38 40 39 35 34
12 14 15 12 12 15 13 13 11 8 11 14 15 13 12 10 13 13 14 16 16 17 17 15 15 17 19 19 21 25 27 31 33 33 32 31 31 33 35 38 40 42 37
11 12 14 10 13 15 14 12 10 8 9 13 15 10 10 8 5 6 10 11 11 14 15 12 11 14 13 14 17 22 28 33 35 35 35 31 30 33 36 37 37 41 43
12 13 13 14 14 15 13 9 7 9 10 14 14 12 8 8 7 1 3 5 8 14 15 13 11 11 11 12 15 20 27 32 38 41 41 30 29 33 37 38 38 38 38
15 16 17 16 15 13 13 10 7 8 12 14 15 12 6 7 6 3 1 0 7 10 9 8 5 7 9 11 16 21 24 34 43 40 40 32 32 33 39 40 38 38 38
13 17 19 17 16 13 13 8 4 7 11 13 11 16 16 15 4 3 7 4 4 3 2 4 8 9 12 16 16 21 28 40 45 42 41 39 34 35 39 40 39 38 40
13 16 15 17 17 12 10 9 8 4 7 13 13 13 16 20 17 13 6 9 8 7 8 10 11 14 17 19 21 26 35 41 46 40 38 36 33 36 40 42 37 38 40
13 18 16 18 18 17 11 13 12 7 4 5 11 13 14 14 16 15 11 11 9 11 12 14 13 15 19 18 22 30 38 42 40 32 32 33 36 42 47 47 39 40 41
11 14 14 16 21 18 14 17 16 12 9 6 3 3 6 9 12 13 14 11 7 10 6 11 13 14 16 22 29 37 43 40 32 29 31 36 42 47 54 49 40 40 38
11 14 12 14 16 15 16 21 19 17 12 13 13 7 4 3 5 7 8 8 8 6 8 6 12 19 24 29 35 38 37 33 29 30 34 40 46 53 52 46 41 34 32
16 15 16 15 14 14 14 17 18 18 18 17 18 16 13 11 11 10 10 12 9 12 14 13 17 24 31 34 37 40 39 37 36 36 40 46 50 49 46 42 38 35 36
19 17 16 15 13 12 13 16 17 16 17 22 21 22 21 20 18 19 20 20 20 18 20 22 25 38 38 41 40 49 42 37 33 36 44 47 44 41 44 42 37 36 40
19 15 17 18 20 23 15 12 17 17 19 18 20 22 23 24 25 25 25 26 26 24 25 29 37 40 43 40 38 31 29 30 31 36 41 41 37 38 46 47 44 34 38
19 15 18 16 18 23 20 13 12 15 16 15 15 17 14 18 21 24 26 27 29 29 28 32 35 34 37 33 32 29 28 29 35 33 35 34 34 36 43 49 52 32 29
24 22 18 20 16 17 15 12 13 14 16 16 15 17 17 18 19 17 18 21 23 26 28 31 32 34 39 34 34 36 36 37 32 36 37 38 38 36 40 47 49 29 21
25 26 24 21 21 19 15 16 15 17 19 22 21 21 21 21 22 23 25 23 23 25 28 31 30 32 31 34 37 35 36 32 42 41 41 43 41 39 41 36 36 33 21
26 25 26 26 24 26 24 20 22 22 22 22 24 24 24 25 26 24 25 25 28 31 31 30 33 34 32 31 31 32 37 40 41 42 50 50 44 44 36 30 23 27 26
15 19 25 26 28 30 29 27 26 24 22 21 21 21 24 25 26 26 27 29 31 34 37 36 35 35 39 36 35 35 40 43 48 39 58 59 42 37 29 25 27 26 25
14 9 8 15 21 26 29 27 26 27 27 26 26 28 27 28 32 34 36 38 40 40 42 44 48 48 48 43 46 55 45 52 52 59 57 52 43 36 29 28 33 27 27
9 15 7 8 14 16 21 21 21 24 27 29 31 33 34 38 39 41 43 44 45 47 49 50 54 55 55 57 58 56 60 62 56 45 41 44 37 41 38 45 41 33 26
6 16 15 14 11 13 14 11 11 17 23 26 27 27 29 34 41 45 46 47 47 46 49 52 53 55 56 55 53 57 54 44 48 44 40 45 37 43 43 44 39 38 44
9 9 9 18 18 17 14 13 16 11 14 16 18 22 26 33 37 42 43 44 45 46 51 51 49 48 50 51 49 51 52 52 48 47 30 34 40 41 46 33 31 40 45
Wind_Direction_850mb
118 123 121 113 132 129 97 88 64 60 89 89 84 73 67 66 60 55 56 61 64 66 66 69 68 68 67 66 63 57 49 40 32 23 15 8 1 353 343 334 325 317 312
124 135 141 123 144 137 112 92 86 83 83 84 85 74 57 58 54 51 54 62 71 77 80 81 80 77 75 68 59 51 42 34 27 20 14 8 2 355 346 338 330 321 312
135 151 165 149 145 139 123 112 92 92 87 80 82 77 70 65 54 55 68 72 72 77 82 83 83 82 74 65 55 47 39 32 27 22 18 14 11 5 358 348 337 324 315
128 142 139 138 145 135 119 121 86 97 73 66 66 51 53 64 76 82 82 83 79 80 80 86 87 81 74 64 52 42 33 25 18 13 11 8 7 6 4 360 350 338 329
117 126 135 137 129 127 129 111 77 74 61 46 28 49 49 75 95 97 93 90 88 86 86 87 87 81 72 62 53 45 36 25 15 7 358 359 0 5 2 3 2 354 349
119 132 140 142 146 137 127 126 113 73 50 28 38 46 70 90 115 114 107 103 96 90 92 95 89 80 75 62 48 40 31 22 12 3 355 352 353 357 360 1 8 8 2
138 134 144 145 148 157 145 129 108 85 61 38 44 45 75 88 86 125 128 128 113 99 95 96 92 81 73 53 36 28 21 15 11 3 354 344 350 355 356 354 1 5 6
172 167 165 151 155 162 162 156 106 87 68 49 50 66 64 60 31 46 143 138 121 114 103 100 98 82 66 44 24 16 16 8 3 358 354 351 354 355 355 352 354 356 358
169 164 171 164 155 155 165 154 122 87 74 56 58 72 72 52 50 1 347 78 142 127 117 103 76 32 7 10 7 7 7 1 359 354 355 353 348 350 350 348 347 352 350
191 182 185 187 176 178 182 174 142 96 81 71 76 74 74 57 48 25 16 33 161 152 38 7 17 12 3 359 349 348 355 353 350 350 354 354 349 348 345 345 343 348 345
189 183 194 192 187 193 193 193 188 134 94 81 84 96 77 63 65 60 43 39 69 37 12 22 20 10 356 350 344 342 347 345 347 350 354 358 358 355 353 347 342 347 346
217 204 193 189 199 207 215 203 198 196 164 118 103 87 83 74 65 57 53 55 47 16 358 352 350 346 346 349 343 340 339 342 346 349 350 347 343 341 343 342 335 338 345
212 208 208 200 208 209 223 211 206 210 213 213 196 110 68 65 64 55 48 39 35 20 25 20 20 18 358 344 341 341 345 347 342 343 339 340 338 336 338 339 334 336 343
206 212 204 197 190 210 224 216 216 216 230 234 234 253 278 333 14 30 13 17 355 349 337 339 347 344 340 339 339 341 347 348 346 342 339 339 337 336 340 345 346 344 348
209 208 203 199 208 218 220 217 226 229 238 245 242 243 260 276 288 301 312 320 324 313 308 307 321 323 326 328 328 330 328 326 325 332 334 335 336 338 346 352 1 359 352
210 199 192 201 207 214 225 229 238 244 253 243 246 249 250 261 274 282 281 284 289 293 296 299 309 313 316 318 320 320 318 315 311 315 322 331 336 339 342 342 343 346 348
214 233 232 228 230 227 227 238 238 249 246 249 253 249 252 259 267 274 276 276 279 286 291 298 308 313 315 321 325 328 331 330 325 324 323 332 336 336 339 341 335 333 341
229 232 232 238 244 220 223 232 238 241 250 246 253 250 262 270 270 275 268 271 276 284 291 302 308 318 322 327 329 336 337 333 327 332 329 333 334 334 339 336 340 332 335
237 234 245 244 259 231 226 230 236 248 253 248 243 249 262 268 275 274 273 279 276 277 292 299 304 312 320 327 329 332 329 328 333 327 330 330 331 332 333 329 338 340 332
243 239 235 240 239 239 248 258 260 261 258 256 258 260 263 261 262 265 269 270 273 277 285 292 293 301 306 315 323 328 325 327 323 322 324 326 329 333 333 331 335 344 331
244 249 245 241 244 250 253 261 263 266 256 259 264 270 269 272 273 272 276 278 278 277 283 283 291 296 303 308 314 314 317 318 324 322 326 329 328 334 335 336 332 340 337
236 244 245 243 244 248 256 263 264 267 271 272 271 272 278 277 278 268 272 280 280 282 286 288 288 290 300 308 310 311 313 314 316 317 322 324 329 330 333 336 327 319 326
225 215 235 243 245 248 250 253 257 265 269 273 278 280 278 276 274 270 271 276 278 279 282 286 287 290 293 299 303 307 305 304 306 310 312 312 321 321 325 321 330 322 309
247 246 219 227 249 262 254 254 258 264 264 268 272 273 273 271 274 275 275 278 279 280 280 281 282 285 289 294 297 299 300 302 304 307 305 304 312 310 311 316 317 318 316
223 217 198 224 236 248 253 267 270 269 265 266 272 277 277 275 277 277 278 280 280 278 276 275 275 280 284 286 288 291 296 295 297 298 295 293 303 305 308 306 312 315 319
173 212 253 221 228 241 260 275 291 291 288 293 294 297 302 302 299 297 300 300 295 292 288 284 283 285 286 288 287 287 290 289 290 296 300 288 300 302 304 298 295 303 305